Location: Unspecified
(0.0000°N, 0.0000°E)
Time: 09:07:30
(UTC+00:00)

Cosmos 80 Rocket - Pass Details

Date: 29 September 2021
Orbit: 1360 x 1510 km, 56.1° (Epoch: 23 October)

Event Time Altitude Azimuth Distance (km) Brightness Sun altitude
Rises 18:30:05 0° 354° (N) 4,600 8.1 -10.0°
Reaches altitude 10° 18:33:52 10° 7° (N) 3,603 7.4 -10.9°
Maximum altitude 18:40:43 24° 58° (ENE) 2,617 6.2 -12.6°
Enters shadow 18:45:07 17° 96° (E) 3,036 6.4 -13.7°
